�������r�C�����j�^�v���󋵏��
Date,Time,5�C6���@���p�r�C��,����,����(m/s)
2022/02/28,00:00,4.2,���쓌,1.7
2022/02/28,00:10,4.0,�쓌,2.3
2022/02/28,00:20,4.0,��,2.6
2022/02/28,00:30,4.0,�쐼,1.7
2022/02/28,00:40,4.1,��,2.0
2022/02/28,00:50,4.2,��,3.1
2022/02/28,01:00,4.1,��,3.5
2022/02/28,01:10,4.1,���쐼,3.0
2022/02/28,01:20,4.0,�쐼,2.3
2022/02/28,01:30,4.1,��쐼,3.4
2022/02/28,01:40,4.0,���쐼,3.3
2022/02/28,01:50,3.9,���쐼,1.9
2022/02/28,02:00,4.0,��쐼,4.4
2022/02/28,02:10,4.2,��,4.5
2022/02/28,02:20,4.2,��쐼,4.8
2022/02/28,02:30,3.9,���쐼,5.0
2022/02/28,02:40,4.1,���쐼,7.3
2022/02/28,02:50,4.1,���쐼,6.5
2022/02/28,03:00,4.0,���쐼,5.7
2022/02/28,03:10,4.0,�쐼,4.8
2022/02/28,03:20,4.2,�쐼,4.4
2022/02/28,03:30,4.1,�쐼,3.2
2022/02/28,03:40,4.1,�쐼,3.1
2022/02/28,03:50,4.0,�쐼,3.8
2022/02/28,04:00,4.2,�쐼,4.1
2022/02/28,04:10,4.1,���쐼,4.8
2022/02/28,04:20,4.0,��,3.3
2022/02/28,04:30,4.2,���k��,4.2
2022/02/28,04:40,4.1,�k��,3.0
2022/02/28,04:50,4.0,���k��,2.8
2022/02/28,05:00,4.2,�k��,1.7
2022/02/28,05:10,4.0,�k�k��,1.9
2022/02/28,05:20,4.1,�k�k��,2.0
2022/02/28,05:30,4.1,�k��,2.0
2022/02/28,05:40,4.1,���k��,2.0
2022/02/28,05:50,4.1,���k��,2.3
2022/02/28,06:00,4.1,��,0.8
2022/02/28,06:10,4.0,�쐼,0.6
2022/02/28,06:20,4.0,�쐼,0.9
2022/02/28,06:30,4.1,���쓌,1.5
2022/02/28,06:40,4.0,��쓌,1.7
2022/02/28,06:50,4.0,�쓌,2.8
2022/02/28,07:00,4.1,�쓌,1.7
2022/02/28,07:10,4.0,�쐼,0.9
2022/02/28,07:20,4.1,���k��,2.2
2022/02/28,07:30,3.9,��,2.3
2022/02/28,07:40,4.0,���쐼,3.9
2022/02/28,07:50,4.1,���쐼,3.8
2022/02/28,08:00,3.9,���쐼,3.7
2022/02/28,08:10,4.2,�쐼,4.2
2022/02/28,08:20,4.1,��,3.8
2022/02/28,08:30,4.1,���k��,4.1
2022/02/28,08:40,4.0,���k��,2.6
2022/02/28,08:50,4.1,�쐼,4.1
2022/02/28,09:00,4.0,��,4.6
2022/02/28,09:10,4.2,���쐼,6.0
2022/02/28,09:20,4.2,���쐼,5.9
2022/02/28,09:30,3.9,���쐼,6.4
2022/02/28,09:40,4.0,���쐼,7.2
2022/02/28,09:50,3.9,���쐼,6.4
2022/02/28,10:00,4.2,���쐼,7.9
2022/02/28,10:10,4.1,��,6.4
2022/02/28,10:20,4.1,���쐼,7.1
2022/02/28,10:30,4.3,��,8.0
2022/02/28,10:40,4.1,��,8.2
2022/02/28,10:50,4.1,���쐼,9.3
2022/02/28,11:00,4.0,���쐼,13.0
2022/02/28,11:10,4.0,��,10.3
2022/02/28,11:20,4.1,��,7.8
2022/02/28,11:30,4.0,���쐼,7.7
2022/02/28,11:40,4.0,��,10.2
2022/02/28,11:50,4.2,���쐼,11.7
2022/02/28,12:00,4.0,��,7.3
2022/02/28,12:10,4.0,��,11.0
2022/02/28,12:20,4.1,���k��,8.1
2022/02/28,12:30,4.2,��,7.8
2022/02/28,12:40,4.1,���k��,10.0
2022/02/28,12:50,4.1,���k��,5.0
2022/02/28,13:00,3.9,��,7.5
2022/02/28,13:10,4.0,���쐼,8.1
2022/02/28,13:20,4.1,��,6.7
2022/02/28,13:30,4.0,���쐼,9.5
2022/02/28,13:40,4.1,��,7.0
2022/02/28,13:50,4.0,��,8.7
2022/02/28,14:00,4.1,��,9.5
2022/02/28,14:10,4.0,���쐼,8.2
2022/02/28,14:20,4.1,��,11.0
2022/02/28,14:30,4.2,��,10.6
2022/02/28,14:40,4.0,��,10.6
2022/02/28,14:50,3.9,���쐼,9.5
2022/02/28,15:00,3.9,��,9.9
2022/02/28,15:10,3.9,��,6.9
2022/02/28,15:20,4.2,��,6.8
2022/02/28,15:30,4.1,��,7.0
2022/02/28,15:40,4.1,��,8.6
2022/02/28,15:50,4.1,��,8.8
2022/02/28,16:00,4.1,��,8.2
2022/02/28,16:10,4.2,��,8.2
2022/02/28,16:20,4.0,��,7.4
2022/02/28,16:30,4.0,��,7.2
2022/02/28,16:40,4.0,��,8.2
2022/02/28,16:50,4.0,��,4.4
2022/02/28,17:00,4.0,��,8.2
2022/02/28,17:10,4.2,��,7.5
2022/02/28,17:20,4.1,��,7.0
2022/02/28,17:30,4.2,���k��,6.3
2022/02/28,17:40,4.0,���k��,6.3
2022/02/28,17:50,4.0,���k��,6.1
2022/02/28,18:00,4.0,���k��,4.4
2022/02/28,18:10,4.0,���k��,4.7
2022/02/28,18:20,3.8,���k��,2.5
2022/02/28,18:30,4.0,��,4.0
2022/02/28,18:40,4.0,���k��,3.4
2022/02/28,18:50,4.0,���k��,3.3
2022/02/28,19:00,4.0,���k��,4.2
2022/02/28,19:10,4.0,���k��,3.9
2022/02/28,19:20,4.1,���k��,4.9
2022/02/28,19:30,4.0,�k��,4.0
2022/02/28,19:40,4.1,�k��,4.5
2022/02/28,19:50,4.0,�k��,4.8
2022/02/28,20:00,4.0,�k��,4.7
2022/02/28,20:10,4.1,�k��,6.1
2022/02/28,20:20,3.9,���k��,7.0
2022/02/28,20:30,4.0,���k��,6.8
2022/02/28,20:40,4.0,���k��,6.7
2022/02/28,20:50,3.9,���k��,8.6
2022/02/28,21:00,4.2,�k��,8.6
2022/02/28,21:10,4.1,���k��,7.6
2022/02/28,21:20,4.0,�k��,6.5
2022/02/28,21:30,4.3,�k��,7.7
2022/02/28,21:40,4.0,�k��,6.8
2022/02/28,21:50,4.1,���k��,3.7
2022/02/28,22:00,4.0,��쓌,1.5
2022/02/28,22:10,4.1,��,2.0
2022/02/28,22:20,4.0,��쓌,1.9
2022/02/28,22:30,3.8,��쓌,0.6
2022/02/28,22:40,4.0,-,CALM
2022/02/28,22:50,4.2,��,1.2
2022/02/28,23:00,4.0,��쓌,0.6
2022/02/28,23:10,3.9,-,CALM
2022/02/28,23:20,4.1,�k,1.7
2022/02/28,23:30,4.1,�k�k��,3.0
2022/02/28,23:40,4.2,�k�k��,2.8
2022/02/28,23:50,4.1,�k,2.6
